Accueil
METAR-TAF:

METAR-TAF

Aéroports :

Fernandina Beach, Floride, États-Unis

latitude: 30-36-43N, longitude: 081-27-40W, altitude: 5 m

Observation

Le bulletin a été fait il y a 7 minutes, à 19:15 UTC
Vent 15 kt de sud/sud-est
Température 32°C
Humidité 75%
Pression 1016 hPa
Visibilité: 16.1 km
Ciel clair

METAR: KFHB 131915Z AUTO 15015KT 10SM CLR 32/27 A2999 RMK AO2 LTG DSNT N T03190266

Heure: 15:22 (19:22 UTC)


TAF: absent

Observations et prévisions météorologiques de plus de 4000 aéroports (messages METAR et TAF).

Les stations disponibles sont représentées par des disques jaunes et rouges sur la carte.

Passer la souris dessus pour voir le nom de la station.

Cliquer dessus pour voir les observations et prévisions météorologiques.

Pour changer de carte: cliquez sur les boutons verts avec une croix noire pour zoomer, sur le bouton vert avec un tiret pour effectuer un zoom arrière, ou sur les flèches vertes pour les cartes adjacentes.


METAR-TAF: